www.pogodaiklimat.ru

Погода и климат >> Архив погоды >> Аргентина >> Las Lomitas


ПОГОДА в Las Lomitas

  • Прогноз погоды в Las Lomitas
  • Монитор погоды в Las Lomitas
  • Климат города

АРХИВ ПОГОДЫ в Las Lomitas

Время (UTC), дата Ветер
(напр.,м/с)
 
Видим.   Явления Облачность Т
(С)
Тd
(С)
f
(%)
Тe
(С)
Тes
(С)
Комфортность P
(гПа)
Po
(гПа)
Тmin
(С)
Tmax
(С)
R
(мм)
R24
(мм)
S
(см)
09 13.11 штиль 0 20 км 3/0
[Ci]
+18.2 +13.3 73 +18 +18 1013.7 998.8
12 13.11 В 1 20 км 3/0
[Ci]
+26.4 +13.7 46 +29 +36 жарко 1015.3 1000.5 +18.2 +27.0
15 13.11 СВ 1 20 км 3/0
[Ci]
+33.4 +10.6 25 +33 +56 опасность
солнечного
удара
1013.8 999.0
18 13.11 штиль 0 20 км 5/0
[Cs]
+36.0 +9.8 20 +35 +56 опасность
солнечного
удара
1010.5 996.1
21 13.11 штиль 0 20 км 8/0
[Cs]
+35.0 +8.5 20 +33 +37 жарко 1007.9 993.0
09 14.11 штиль 0 20 км 4/0
[Ci]
+17.8 +11.3 66 +18 +18 1008.6 993.8
12 14.11 СВ 1 20 км 4/0
[Ci]
+27.4 +12.5 40 +29 +37 жарко 1009.7 994.9 +17.5 +27.4
15 14.11 СВ 2 20 км ясно +34.2 +11.4 25 +34 +54 опасность
солнечного
удара
1008.1 993.6
18 14.11 СВ 1 20 км 3/0
[Ci]
+37.4 +10.1 19 +36 +55 опасность
солнечного
удара
1007.2 992.5
21 14.11 СВ 1 20 км 1/0
[Ci]
+37.2 +11.9 22 +37 +40 очень
жарко
1006.2 991.6
00 15.11 В 1 20 км ясно +29.6 +12.9 36 +31 +31 жарко 1007.5 992.9 +27.4 +38.5
09 15.11 штиль 0 20 км ясно +20.9 +12.9 60 +23 +23 комфорт 1005.2 990.5
12 15.11 СВ 3 20 км ясно +30.0 +14.8 40 +32 +39 жарко 1005.1 990.5 +20.8 +30.0
15 15.11 СВ 4 20 км ясно +37.4 +14.2 25 +38 +53 опасность
солнечного
удара
1003.3 988.8
18 15.11 СВ 3 20 км ясно +41.8 +11.1 16 +41 +55 опасность
перегрева
999.8 985.4
21 15.11 СВ 3 20 км ясно +40.9 +8.4 14 +39 +42 очень
жарко
998.3 983.8
00 16.11 В 1 20 км ясно +32.1 +13.2 32 +33 +33 жарко 1001.2 986.8 +30.0 +42.2
09 16.11 З 2 20 км 8/0
[Ac trans]
+26.7 +15.9 52 +30 +30 душно 1006.6 992.2
12 16.11 Ю 3 20 км 6/0
[Cs]
+26.0 +9.0 34 +26 +31 жарко 1011.5 996.8 +26.0 +32.1
15 16.11 Ю 4 20 км 6/0
[Cs]
+28.0 +10.8 34 +29 +42 жарко 1012.1 997.4
18 16.11 Ю 4 20 км ясно +30.0 +13.5 36 +31 +44 жарко 1008.9 994.2
21 16.11 Ю 4 20 км ясно +28.3 +12.6 38 +30 +32 жарко 1007.1 992.5
00 17.11 Ю 3 20 км ясно +24.0 +14.7 56 +27 +27 жарко 1009.5 994.6 +24.0 +30.4
09 17.11 ЮВ 1 20 км 10/10 1200 м
[St]
+18.6 +14.5 77 +20 +20 1007.8 992.9
12 17.11 В 1 20 км 10/10 1200 м
[St]
+20.2 +15.2 73 +24 +24 комфорт 1007.8 992.8 +18.6 +24.0
15 17.11 СВ 1 20 км 1/1 1500 м
[Cu hum]
+25.8 +17.3 59 +30 +52 опасность
солнечного
удара
1006.4 991.6
18 17.11 СВ 1 20 км 5/0
[Ci]
+31.8 +16.8 41 +35 +54 опасность
солнечного
удара
1005.8 991.0
21 17.11 В 1 20 км 8/0
[Ac As]
+31.8 +17.6 43 +36 +37 очень
душно
1004.3 989.6
00 18.11 ЮЗ 2 20 км 5/0
[Ci]
+26.2 +19.1 65 +31 +31 очень
душно
1007.6 992.8 +20.2 +33.0
09 18.11 ЮЗ 1 20 км ясно +20.4 +18.5 89 +25 +25 комфорт 1010.0 995.2
12 18.11 ЮВ 3 20 км ясно +25.0 +16.7 60 +29 +34 душно 1012.4 997.6 +20.4 +26.2
15 18.11 ЮВ 5 20 км ясно +29.2 +9.9 30 +29 +40 жарко 1013.2 998.4
18 18.11 ЮЗ 3 20 км 1/1 1500 м
[Cu hum]
+30.6 +11.1 30 +31 +44 жарко 1009.4 994.5
21 18.11 Ю 3 20 км ясно +28.6 +8.1 28 +28 +31 жарко 1008.4 993.6
00 19.11 Ю 1 20 км ясно +23.8 +6.0 32 +24 +24 комфорт 1011.1 996.1 +23.8 +30.8
09 19.11 штиль 0 20 км ясно +14.4 +8.1 66 +14 +14 1012.2 997.0
12 19.11 СВ 1 20 км ясно +22.6 +5.7 33 +23 +31 комфорт 1013.0 998.0 +14.4 +23.8
15 19.11 СВ 1 20 км 3/0
[Ac trans]
+29.4 +6.9 24 +28 +48 жарко 1012.4 997.6
18 19.11 СВ 2 20 км ясно +33.2 +5.5 18 +31 +48 жарко 1010.9 996.0
21 19.11 СВ 1 20 км ясно +32.9 +6.5 19 +31 +35 жарко 1010.2 995.3
00 20.11 ЮВ 1 20 км ясно +25.4 +9.1 36 +26 +26 жарко 1011.9 996.9 +22.6 +34.0

 

Местоположение метеостанции Las Lomitas (Аргентина): широта -24.70 долгота -60.58 высота над уровнем моря 130 м.

В архиве по умолчанию представлена погода в Las Lomitas за последнюю неделю. Архивные данные за месяц целиком и за предыдущие месяцы, начиная с января 2011 года, Вы можете получить, выбрав интересующий диапазон дат из раскрывающегося списка и нажав кнопку "Ввод!".

Внимание! Время в таблицах - всемирное. Для получения местного времени необходимо прибавить поправку, которая в Las Lomitas равна -3 ч.

Смотрите также архив погоды в соседних городах и на ближайших метеорологических станциях:

Погода в Gral. Bruguez (Парагвай) (177 км)
Погода в Pozo Colorado (Парагвай) (225 км)
Погода в Presidencia Roque Saenz Pena (Аргентина) (226 км)
Погода в Prats-Gil (Парагвай) (241 км)
Погода в Formosa (Аргентина) (289 км)
Погода в Mariscal Estigar (Парагвай) (299 км)
Погода в Asuncion (Парагвай) (316 км)
Погода в Pilar (Парагвай) (330 км)
Погода в Resistencia (Аргентина) (342 км)
Погода в Corrientes (Аргентина) (356 км)

Пояснения к столбцам:

Ветер - указаны скорость ветра в м/с - средняя за 10 мин, порывы в срок и между сроками (в фигурных скобках) и направление, откуда дует ветер: С - северный, СВ - северо-восточный, В - восточный, ЮВ - юго-восточный, Ю - южный, ЮЗ - юго-западный, З - западный, СЗ - северо-западный.
Видимость - горизонтальная дальность видимости в метрах или километрах. При видимости от 1 до 10 км при отсутствии осадков обычно наблюдается дымка, при ухудшении видимости до 1 км и менее - туман. В сухую погоду видимость может ухудшаться дымом, пылью или мглою.
Явления - указаны атмосферные явления, наблюдавшиеся в срок или в последний час перед сроком; фигурными скобками обозначены явления, наблюдавшиеся между сроками (за 1-3 часа до срока); квадратными скобками обозначены град или гололедные отложения с указанием их диаметра в мм.
Облачность - указаны через наклонную черту общая и нижняя облачность в баллах и высота нижней границы облаков в метрах; квадратными скобками обозначены формы облаков: Ci - перистые, Cs - перисто-слоистые, Cc - перисто-кучевые, Ac - высококучевые, As - высокослоистые, Sc - слоисто-кучевые, Ns - слоисто-дождевые, Cu - кучевые, Cb - кучево-дождевые. Подробнее классификацию облаков см. в Атласе облаков (PDF).
T - Температура воздуха - температура, измеренная на высоте 2 м над землей.
Td - Температура точки росы - температура, при понижении до которой содержащийся в воздухе водяной пар достигнет насыщения.
f - Относительная влажность воздуха - влажноcть воздуха, измеренная на высоте 2 м над землей.
Te - Эффективная температура - температура, которую ощущает одетый по сезону человек в тени. Характеристика душности погоды. При расчете учитывается влияние влажности воздуха и скорости ветра на теплоощущения человека.
Tes - Эффективная температура на солнце - температура, которую ощущает человек, с поправкой на солнечный нагрев. Характеристика знойности погоды. Зависит от высоты солнца над горизонтом, облачности и скорости ветра. Ночью, в пасмурную погоду, а также при ветре 12 м/с и более поправка равна нулю.
P - Атмосферное давление - приведенное к уровню моря атмосферное давление.
Po - Атмосферное давление - измеренное на уровне метеостанции атмосферное давление.
Tmin - Минимальная температура - минимум температуры воздуха на высоте 2 м над землей.
Tmax - Максимальная температура - максимум температуры воздуха на высоте 2 м над землей.
R - Количество осадков - Количество выпавших осадков за период времени, мм. При наведении курсора мыши на число - период времени, за который выпало указанное количество осадков.
R24 - Количество осадков - Количество выпавших осадков за 24 часа, мм.
S - Снежный покров - Высота снежного покрова, см. При наведении курсора мыши на число - состояние снежного покрова и степень покрытия местности в баллах.